Location: Brusselsch Zeekanaal
(50.8667°N, 4.3667°E)
Time: 08:54:12
(UTC+00:00)

COSMOS 2428 - Pass Details

Date: 08 November 2025
Orbit: 847 x 852 km, 70.9° (Epoch: 11 December)

Event Time Altitude Azimuth Distance (km) Brightness Sun altitude
Exits shadow 04:41:24 - 209° (SSW) 2,646 5.0 -19.9°
Reaches altitude 10° 04:41:52 10° 209° (SSW) 2,467 4.9 -19.8°
Maximum altitude 04:47:33 88° 297° (WNW) 855 2.6 -18.9°
Drops below altitude 10° 04:53:17 10° 30° (NNE) 2,482 5.4 -18.0°
Sets 04:55:44 0° 30° (NNE) 3,421 6.2 -17.6°
